Location: Vesunti
(61.5000°N, 22.8333°E)
Time: 11:01:48
(UTC+00:00)

Cosmos 1697 Rocket - Pass Details

Date: 17 February 2020
Orbit: 831 x 845 km, 71.0° (Epoch: 09 April)

Event Time Altitude Azimuth Distance (km) Brightness Sun altitude
Exits shadow 04:27:35 - 314° (NW) 2,636 4.8 -12.5°
Reaches altitude 10° 04:28:04 10° 316° (NW) 2,461 4.7 -12.4°
Maximum altitude 04:33:31 48° 30° (NNE) 1,093 3.5 -11.8°
Drops below altitude 10° 04:38:59 10° 105° (ESE) 2,462 6.6 -11.1°
Sets 04:41:32 0° 111° (ESE) 3,397 7.5 -10.8°
